Weather in Voyvozh

Russia / Komi Republic     62°53′39″N   54°58′03″E
temp.,
°C
wind,
m/s
gust,
m/s
humid.,
%
clouds,
%
prec.,
mm/h
press.,
hPa
HPBL,
m
7 may, fri
fri700:00−1w24794 0.0 101196
03:00−1wsw117676 0.0 101212
06:00+1sse2365100 0.0 1012226
09:00+1ese2482100 0.7 1012223
12:00+6se357129 0.0 1011470
15:00+13se256385 0.0 1010771
18:00+9se3879100 0.0 1010221
21:00+7sse3892100 0.2 1010134
8 may, sat
sat800:00+8sse31192100 0.2 1009232
03:00+8s41390100 0.2 1009364
06:00+8wsw6988100 0.3 1011936
09:00+7wsw4975100 0.6 10141150
12:00+10wsw4865100 0.0 10171350
15:00+12wnw24507 0.0 10181449
18:00+11wnw01573 0.0 101911
21:00+7ese25740 0.0 101979
9 may, sun
sun900:00+6se31081100 0.0 1020209
03:00+6se3118025 0.0 1019252
06:00+9se41264100 0.0 1019423
09:00+14se5104999 0.0 1017799
12:00+18sse61047100 0.0 10161786
15:00+20s51142100 0.0 10152379
18:00+18sse51149100 0.0 10151015
21:00+15sse51557100 0.0 1015686
10 may, mon
mon1000:00+13ssw51172100 0.3 1013901
03:00+11sw3781100 1.0 1015712
06:00+8w4890100 3.9 1017717
09:00+7wnw5767100 4.9 10191001
12:00+10wnw484590 0.0 10212112
15:00+12wnw593296 0.0 10222697
18:00+11w47355 0.0 10231189
21:00+6wsw310634 0.0 1023221
11 may, tue
tue1100:00+5sw287264 0.0 1024183
03:00+5sw3979100 0.0 1024312
06:00+8ssw3569100 0.0 1024298
09:00+9ssw3770100 0.1 1023827
12:00+7ssw3991100 1.1 1021458
15:00+7ssw31096100 2.6 1020544
18:00+9sw31198100 2.4 1020475
21:00+10wsw31097100 3.1 1019370